Location: Parish Hills
(32.9601°N, 85.9377°W)
Time: 00:30:22
(UTC+00:00)

Daily predictions for brighter satellites

Satellite Brightness Start Highest point End
(mag) Time Altitude Azimuth Time Altitude Azimuth Time Altitude Azimuth
ADEOS Rocket 3.5 00:28:30 10° N 00:34:27 64° WNW 00:39:57 10° SSW
Aureole 3 4.2 00:30:20 10° S 00:34:54 83° W 00:40:49 10° N
CZ-2D R/B 3.3 00:31:26 10° S 00:35:14 84° W 00:39:02 10° NNW
HJ-1C 4.0 00:34:00 10° SE 00:37:07 37° ENE 00:40:15 10° N
Centaur D AC-28 4.2 00:36:15 10° SW 00:37:09 11° SSW 00:37:58 10° SSW
GPS 2-04 Rocket1 3.6 00:37:17 10° SW 00:40:51 33° SSE 00:44:31 10° E
SL-8 R/B 3.7 00:55:42 10° NW 01:00:29 86° SW 01:04:34 14° SE
SeaSat 1 3.8 00:56:58 10° N 01:01:36 43° WNW 01:06:13 10° SW
H-2A R/B 2.3 00:57:32 10° SSE 01:02:32 48° ENE 01:07:25 10° N
Cosmos 1300 4.2 01:02:33 17° E 01:03:06 18° E 01:05:40 10° NE
YAOGAN 1 4.3 00:59:24 10° SSW 01:03:22 35° W 01:07:20 10° NNW
SJ-6B 3.9 01:01:41 15° SE 01:04:23 29° ENE 01:07:57 10° NNE
ATLAS 5 CENTAUR R/B 2.4 01:00:30 10° SW 01:04:24 50° WNW 01:08:39 10° NNE
Cosmos 1140 Rocket 3.4 01:02:01 10° S 01:07:11 71° ESE 01:12:20 10° NNE
Cosmos 2074 Rocket 4.0 01:02:03 10° N 01:08:22 76° E 01:14:39 10° S
Ariane Rocket 3.0 01:05:07 10° SSE 01:10:07 67° ENE 01:15:09 10° N
FREGAT/IRIS 2.6 01:12:04 27° SE 01:13:07 44° ENE 01:15:44 10° N
CZ-2C R/B 2.8 01:14:19 10° SSE 01:19:10 64° ENE 01:23:53 10° N
APEX 4.3 01:14:14 10° NNW 01:20:01 48° ENE 01:22:43 24° SE
Hubble Space Telescope 1.3 01:16:27 10° WSW 01:20:22 43° S 01:21:59 28° SE
Cosmos 1437 3.7 01:17:39 10° NNW 01:20:32 43° W 01:23:23 10° SSW
COSMOS 2455 3.9 01:16:03 10° N 01:21:06 27° NE 01:23:28 21° E
Cosmos 1190 Rocket 4.3 01:16:53 10° SSW 01:22:10 70° WNW 01:27:27 10° NNE
Cosmos 1943 Rocket 4.2 01:18:59 10° NW 01:23:39 28° WSW 01:28:19 10° SSW
Cosmos 2058 Rocket 3.0 01:20:08 10° S 01:24:38 75° E 01:29:07 10° N
Cosmos 1610 Rocket 4.4 01:19:28 10° N 01:25:35 65° E 01:31:38 10° SSE
ISS -0.8 01:25:11 10° WSW 01:26:08 11° SW 01:27:03 10° SW
Cosmos 1726 Rocket 4.1 01:22:14 10° SSW 01:26:34 61° W 01:30:59 10° N
USA 234 3.7 01:21:09 10° ENE 01:27:05 36° SE 01:33:00 10° S
Cosmos 1908 4.0 01:23:26 10° SSW 01:27:11 52° W 01:30:59 10° N
Cosmos 1340 Rocket 2.9 01:25:28 10° S 01:29:31 81° W 01:33:33 10° N
SL-08 RB Rocket 3.8 01:28:45 26° SE 01:31:06 53° ENE 01:35:35 10° N
ATLAS 2AS CENTAUR R/B 2.8 01:24:00 10° NNW 01:31:20 64° ENE 01:35:25 26° SE
Cosmos 1703 3.3 01:27:22 10° N 01:31:21 81° W 01:34:48 13° S
CZ-2C R/B 3.6 01:27:02 10° NNE 01:31:40 69° ESE 01:36:11 10° S
Cosmos 1461 3.7 01:28:04 10° NNW 01:32:25 41° ENE 01:33:42 33° E
SL-24 R/B 3.5 01:31:37 10° NNE 01:35:24 76° ESE 01:39:01 10° S
Cosmos 921 Rocket 3.4 01:32:49 10° N 01:36:44 38° ENE 01:37:03 37° E
Cosmos 1328 4.1 01:34:52 10° NNW 01:38:51 67° W 01:42:08 14° S
USA 186 2.3 01:37:16 21° S 01:39:16 59° W 01:42:26 10° NNW
CZ-3 Stage 3 4.3 01:33:59 10° W 01:40:58 82° S 02:31:21 10° E
Cosmos 2369 Rocket 4.2 01:37:23 10° NW 01:42:01 26° WSW 01:46:37 10° SSW
Resurs 01 Rocket 2.7 01:47:58 29° NE 01:47:58 29° NE 01:51:10 10° N
Cosmos 676 Rocket 4.4 01:46:13 10° SSW 01:51:27 64° WNW 01:56:41 10° N
DMSP B5D2-2 3.9 01:48:06 10° NNE 01:53:21 84° ESE 01:58:36 10° SSW
COSMOS 2406 4.0 02:00:24 34° ENE 02:00:24 34° ENE 02:04:01 10° NE
MetOp-A 4.0 01:58:56 44° SSE 02:00:40 78° ENE 02:06:02 10° N
MOS 1 Rocket 3.6 01:58:16 10° N 02:03:44 86° WNW 02:09:07 10° SSW
SPOT 3 Rocket 3.5 02:05:20 45° S 02:07:00 85° WSW 02:12:14 10° NNW
Cosmos 2341 Rocket 3.9 02:04:35 10° N 02:11:00 81° E 02:13:10 45° SSE
ARGOS 4.3 02:07:05 11° SSW 02:11:53 41° W 02:16:57 10° NNW
GEOS 3 Rocket 4.2 02:11:51 37° S 02:13:28 51° WSW 02:18:30 10° NW
CZ-2C R/B 2.7 02:08:30 10° N 02:13:40 73° WNW 02:18:13 14° SSW
GPS 2-04 Rocket1 3.7 02:16:10 10° W 02:19:02 44° W 02:19:02 44° W
Cosmos 1741 Rocket 4.0 02:21:42 73° NE 02:21:42 73° NE 02:26:33 10° NNE
Cosmos 2218 Rocket 4.0 02:15:35 10° N 02:21:33 58° ENE 02:21:33 58° ENE
Meteor 2-1 Rocket 4.2 02:30:17 84° E 02:30:17 84° E 02:36:10 10° N
Cosmos 2181 Rocket 4.2 02:26:46 23° SSW 02:30:52 68° W 02:37:02 10° N
SL-8 Rocket 3.9 02:27:04 10° N 02:33:25 88° E 02:33:54 78° SSE
Cosmos 2366 rocket 4.0 02:41:32 10° N 02:47:02 73° N 02:47:02 73° N
COSMOS 2455 3.8 03:01:31 10° NW 03:06:39 40° W 03:06:39 40° W
USA 234 3.9 03:03:49 10° NNE 03:10:07 52° NW 03:16:24 10° WSW
Resurs 01 Rocket 4.4 03:25:32 15° WNW 03:25:32 15° WNW 03:26:52 10° NW
ATLAS 5 CENTAUR R/B 4.1 03:24:13 10° WSW 04:06:39 15° ESE 04:15:48 10° ESE
CZ-4C R/B 4.1 03:58:09 10° NNW 04:02:32 35° N 04:02:32 35° N
ATLAS 3B R/B 4.5 07:31:24 22° E 07:31:24 22° E 07:34:37 10° ENE
CZ-2D R/B 4.5 07:47:05 10° N 07:48:19 17° N 07:48:19 17° N
SL-16 R/B 4.2 07:54:29 10° N 07:59:00 24° ENE 08:02:20 15° ESE
CENTAUR R/B 3.2 08:21:28 46° N 08:21:28 46° N 08:26:11 10° NNE
Cosmos 2263 Rocket 4.2 08:20:38 20° ESE 08:21:36 21° E 08:25:42 10° NE
H-2A R/B 4.5 08:35:25 16° N 08:35:25 16° N 08:36:20 10° N
Cosmos 2297 Rocket 4.1 08:36:12 20° NNW 08:36:12 20° NNW 08:38:27 10° N
Cosmos 2279 Rocket 4.0 08:34:58 10° N 08:41:02 78° ENE 08:41:02 78° ENE
ADEOS II 3.7 08:36:57 10° N 08:39:23 26° NNW 08:39:23 26° NNW
ARIANE 5 R/B 3.6 08:39:13 10° N 08:42:25 37° N 08:42:25 37° N
Meteor 2-9 Rocket 4.3 08:42:09 10° N 08:48:02 75° E 08:48:06 75° E
IDEFIX/ARIANE 42P 2.9 08:46:28 10° NNE 08:51:37 58° E 08:51:46 58° ESE
Meteor 2-4 Rocket 3.7 08:52:53 86° NE 08:52:53 86° NE 08:58:40 10° N
Cosmos 2227 Rocket 4.1 09:02:35 16° NW 09:02:35 16° NW 09:04:44 10° NNW
Cosmos 2227 4.3 09:06:16 59° SSE 09:07:11 71° ESE 09:12:47 10° NNE
Cosmos 494 Rocket 3.9 09:03:28 10° NNW 09:08:46 89° ENE 09:09:15 75° SSE
Cosmos 1300 Rocket 3.8 09:06:41 10° N 09:10:58 65° E 09:10:58 65° E
COBE Rocket 3.9 09:11:25 45° SSE 09:12:48 72° ENE 09:17:29 10° N
Cosmos 2180 Rocket 4.4 09:13:02 10° NNW 09:19:12 64° W 09:20:42 49° SW
ATLAS 3B R/B 2.9 09:18:40 46° W 09:19:39 49° NW 09:26:04 10° NNE
PSLV R/B 4.0 09:18:02 10° NNE 09:22:21 59° E 09:23:41 40° SSE
Cosmos 1378 Rocket 4.1 09:21:09 37° SSE 09:22:35 56° E 09:26:51 10° NNE
USA 267 3.8 09:18:48 10° NNE 09:24:55 45° NW 09:26:53 35° W
CZ-4B R/B 2.4 09:26:57 22° SE 09:28:55 47° ENE 09:32:17 10° N
Okean 2 Rocket 3.5 09:26:58 10° NNW 09:30:36 48° NW 09:30:36 48° NW
Cosmos 1818 3.5 09:26:00 10° NNW 09:31:28 87° ENE 09:36:52 10° SSE
Cosmos 2151 Rocket 3.4 09:29:00 10° N 09:33:25 82° W 09:34:53 41° S
Timation 1 Rocket 4.3 09:33:00 42° SW 09:35:02 70° WNW 09:41:02 10° NNE
Lacrosse 5 3.9 09:35:45 10° S 09:39:41 23° ESE 09:43:37 10° ENE
Cosmos 1867 4.0 09:39:06 38° W 09:40:03 42° WNW 09:45:13 10° NNE
SL-16 R/B 2.6 09:37:58 10° NW 09:43:11 39° WSW 09:43:46 38° WSW
Cosmos 1269 Rocket 3.9 09:38:08 10° NNW 09:43:22 62° WSW 09:48:34 10° S
Delta 142 4.4 09:41:24 37° WSW 09:43:36 56° S 09:48:45 10° ESE
Cosmos 1066 Rocket 4.3 09:41:26 12° S 09:46:56 85° E 09:52:49 10° N
Geosat 3.9 09:42:03 10° NNE 09:47:06 87° ESE 09:50:09 24° SSW
MSX 3.9 09:43:25 10° N 09:49:06 60° WNW 09:52:25 25° SW
STARLINK-1179 3.8 09:52:17 35° SSE 09:53:00 42° SE 09:55:58 10° ENE
STARLINK-1176 3.7 09:52:44 35° S 09:53:27 43° SE 09:56:26 10° ENE
CZ-2C R/B 2.2 09:49:24 10° NNE 09:53:58 82° E 09:58:23 11° S
STARLINK-1173 3.8 09:55:09 32° S 09:56:02 42° SE 09:59:00 10° ENE
STARLINK-1136 3.8 09:55:35 32° S 09:56:29 43° SE 09:59:27 10° ENE
STARLINK-1163 4.4 09:55:44 23° S 09:57:36 41° SE 10:01:07 10° ENE
STARLINK-1161 4.5 09:56:03 21° S 09:57:52 37° SE 10:01:13 10° ENE
Cosmos 1437 Rocket 2.8 09:55:23 14° S 09:58:53 83° E 10:02:58 10° N
STARLINK-1160 4.4 09:58:09 21° S 10:00:03 39° SE 10:03:26 10° ENE
ATLAS 5 CENTAUR R/B 2.6 09:54:03 10° NNW 10:00:13 83° ENE 10:07:11 10° SSE
Gbstr 26 Del rocket 4.4 09:57:15 25° W 10:00:22 42° NW 10:05:30 10° NNE
STARLINK-1149 4.2 09:58:33 22° SSW 10:00:37 45° SE 10:04:17 10° ENE
STARLINK-1183 3.7 10:01:44 27° S 10:03:00 44° SE 10:06:00 10° ENE
STARLINK-1181 3.7 10:02:10 27° S 10:03:28 44° SE 10:06:27 10° ENE
ATLAS 5 CENTAUR R/B 2.6 10:01:32 26° WSW 10:03:47 41° WNW 10:06:28 10° NNE
STARLINK-1196 3.7 10:02:36 27° S 10:03:54 45° SE 10:06:54 10° ENE
STARLINK-1186 3.7 10:03:01 27° S 10:04:20 45° SE 10:07:19 10° NE
STARLINK-1185 3.6 10:03:27 26° S 10:04:48 46° SE 10:07:48 10° NE
Cosmos 2263 Rocket 2.6 10:02:22 26° WSW 10:05:08 43° WNW 10:10:32 10° N
STARLINK-1175 3.6 10:03:53 26° S 10:05:13 47° SE 10:08:13 10° NE
STARLINK-1147 3.6 10:04:20 26° SSW 10:05:42 48° SE 10:08:42 10° NE
STARLINK-1146 3.6 10:04:46 26° SSW 10:06:09 48° SE 10:09:10 10° NE
Shenzhou-11 Module 3.2 10:05:54 22° NNW 10:06:12 23° NNW 10:08:20 10° NE
Palapa 6 Rocket 4.5 10:05:50 16° SSW 10:06:16 16° S 10:08:43 10° SE
Cosmos 1603 3.8 10:00:56 10° NNW 10:06:34 80° ENE 10:12:13 10° SSE
STARLINK-1152 3.5 10:05:12 26° SSW 10:06:36 49° SE 10:09:37 10° NE
STARLINK-1195 3.5 10:05:38 26° SSW 10:07:02 49° SE 10:10:02 10° NE
STARLINK-1137 3.5 10:06:03 26° SSW 10:07:30 50° SE 10:10:32 10° NE
Cosmos 1092 Rocket 4.3 10:02:40 15° SSW 10:07:40 48° W 10:13:45 10° N
STARLINK-1142 3.5 10:06:29 26° SSW 10:07:56 51° SE 10:10:57 10° NE
STARLINK-1127 3.4 10:06:56 26° SSW 10:08:24 52° SE 10:11:27 10° NE
STARLINK-1184 3.4 10:07:21 25° SSW 10:08:51 53° SE 10:11:53 10° NE
Cosmos 1975 Rocket 3.5 10:04:48 10° S 10:09:05 63° E 10:13:25 10° NNE
STARLINK-1193 3.4 10:07:47 25° SSW 10:09:16 53° SE 10:12:19 10° NE
STARLINK-1194 3.4 10:08:13 25° SSW 10:09:45 54° SE 10:12:47 10° NE
Okean 1 Rocket 3.0 10:07:17 10° NNW 10:11:39 70° W 10:16:02 10° S
CENTAUR R/B 4.4 10:09:05 10° WNW 10:11:45 13° NW 10:14:36 10° N
STARLINK-43 3.2 10:08:53 10° NW 10:12:35 88° SW 10:16:16 10° SE
Cosmos 2026 Rocket 4.0 10:09:44 10° SSW 10:15:42 57° W 10:21:40 10° N
Meteor 1-31 Rocket 2.9 10:15:22 10° NNE 10:19:17 76° E 10:23:09 10° S
DELTA 2 R/B(2) 4.1 10:19:28 28° S 10:20:01 38° SE 10:22:27 10° ENE
EPKM 3.6 10:22:55 14° SSW 10:24:07 17° S 10:25:44 10° SE
Meteor 1-15 Rocket 4.3 10:22:40 10° NNW 10:28:07 54° W 10:33:40 10° S
IDEFIX/ARIANE 42P 4.3 10:27:58 10° NW 10:30:39 14° WNW 10:32:35 12° W
SeaSat 1 3.4 10:26:18 10° SE 10:31:05 53° ENE 10:35:52 10° NNW
ALOS 2.5 10:38:25 10° NNE 10:43:06 76° ESE 10:47:45 10° S
BREEZE-M DEB (TANK) 1.7 10:41:04 10° SW 10:43:40 51° SE 10:45:58 10° ENE
Cosmos 1378 4.0 10:41:15 10° SW 10:44:29 28° W 10:47:45 10° NNW
Cosmos 1766 3.2 10:44:33 10° NNW 10:48:22 59° W 10:52:09 10° S
STARLINK-1150 3.9 10:51:17 10° WSW 10:54:48 43° NW 10:58:20 10° NNE
